Location: Anglesey
(53.1800°N, 4.2200°W)
Time: 04:46:51
(UTC+00:00)

ISS - Visible Passes

Search period start: 19 January 2019 00:00
Search period end: 29 January 2019 00:00
Orbit: 404 x 411 km, 51.6° (Epoch: 19 January)

Date Brightness Start Highest point End Pass type
(mag) Time Alt. Az. Time Alt. Az. Time Alt. Az.
23 Jan -1.2 19:13:03 10° SSW 19:13:39 13° S 19:13:39 13° S visible
24 Jan -1.6 18:22:41 10° S 18:24:20 13° SE 18:24:35 13° SE visible
24 Jan -0.6 19:57:07 10° SW 19:57:19 11° SW 19:57:19 11° SW visible
25 Jan -2.3 19:05:59 10° SW 19:08:09 27° S 19:08:09 27° S visible
26 Jan -2.2 18:15:02 10° SSW 18:17:41 23° SSE 18:18:57 18° ESE visible
26 Jan -1.2 19:50:35 10° WSW 19:51:40 19° WSW 19:51:40 19° WSW visible
27 Jan -1.6 17:24:23 10° S 17:26:28 16° SE 17:28:33 10° ESE visible
27 Jan -3.3 18:59:17 10° WSW 19:02:23 46° SSE 19:02:23 46° SSE visible
28 Jan -2.8 18:08:03 10° SW 18:11:07 36° SSE 18:13:04 18° E visible
28 Jan -1.7 19:44:08 10° W 19:45:47 27° WSW 19:45:47 27° WSW visible
